DECAYED

STARLINK-30209, 57307 (Decayed)

Orbit data source: Space-Track

STARLINK-30209, 57307 was a payload satellite owned by SpaceX/Seattle (US) in LEO that was launched on Mon, 10 Jul 2023 UTC via an FALCON 9 launch vehicle from the Air Force Eastern Test Range (AFETR). Payload-class satellites include a variety of spacecraft equipped with specific instruments for various scientific and technological missions. These include communications satellites like Starlink; space stations such as the ISS; scientific satellites like the Hubble; Earth observation satellites from companies like Planet Labs, Umbra, and HawkEye 360; GPS; miniature CubeSats for education and research; and military/defense satellites.

Not visible in the next 10 days
Identifier
57307, 2023-096T
Orbit
Decayed
Country
Flag of USUS
Related business
Manufacturer
SpaceX/Seattle
Mission
Decayed Commercial Communications
Bus & Motor
STARLINK V2M, Unknown motor
Mass
730 kg wet, ~700 kg dry
Launch date (UTC)
2023-07-10 (3 years ago)
Launch vehicle
FALCON 9
Launch site
Air Force Eastern Test Range (AFETR)
Object type
Payload
Rocket body
Debris
Shape & HBR
Box + 2 Pan, 17.7 m
Radar Cross Section
33.884 m², Large (>1 m²)

Expand to show TLE details & history
Last TLE update: 6 months ago

TLE from 6 months ago
0 STARLINK-30209
1 57307U 23096T   26061.38385295  .07402874  92504-5  21000-2 0  9992
2 57307  42.9575 178.4941 0023127 349.9616  10.0807 16.25821908146596
Epoch: 2026-03-02T09:12Z
TLE epoch observation values (Epoch: 2026-03-02T09:12:44.894Z)
Latitude
Longitude
-119.871°
Altitude
188.569 km
Speed
7.804 km/s
True Right ascension
11h 53m 58s
True Declination
0° 00' 00"
Sunlit
Object was in full shadow at epoch
Visualization orbit readout
Latitude
Unknown
Longitude
Unknown
Altitude
Unknown
Speed
Unknown
Apparent Right ascension
Unknown
Apparent Declination
Unknown
Sunlit
N/A
Visualization observer readout
Local Sidereal Time
11:43:02
Azimuth
Unknown
Elevation
Unknown
Doppler factor
Unknown
Orbital elements
Apogee altitude
221.054 km
Perigee altitude
190.6 km
Semi-major axis
6,583.964 km
Eccentricity
0.00231
Inclination
42.9575°
RAAN
178.4941°
Arg. of periapsis
349.9616°
True anomaly
10.12722°
Mean anomaly
10.0807°
Eccentric anomaly
10.10395°
Mean motion
4.06267 °/min
Orbital period
88.61 mins
BSTAR
0.0021
Loading maneuver chart data...
Computing Atmospheric mass density...

Documentation

Showing up to 5 results
|